Simultaneous Nadir Overpasses (SNOs) Predictions

Prediction of SNOs between AQUA and NOAA-19 Satellite Orbit:

Table of predicted SNOs for the next 14.0 days since TLE Epoch: 4/2/2016
Index Date (AQUA) Time (AQUA) Lat,Lon (AQUA) SZA (AQUA ) Date (NOAA-19) Time (NOAA-19) Lat,Lon (NOAA-19) SZA (NOAA-19 ) Distance(km) Time Diff (sec)
1 04/03/2016 03:18:56 80.77, 92.24 77.36 04/03/2016 03:18:33 80.77, 92.21 77.38 0.63 23
2 04/03/2016 04:08:21 -80.73, -99.63 102.74 04/03/2016 04:09:33 -80.73, -99.63 102.76 0.67 72
3 04/05/2016 08:52:42 -80.76,-171.13 103.52 04/05/2016 08:52:41 -80.76,-171.06 103.52 1.36 1
4 04/07/2016 13:37:02 -80.77, 117.65 104.33 04/07/2016 13:35:48 -80.77, 117.84 104.32 3.29 74
5 04/07/2016 14:26:28 80.76, -74.52 75.63 04/07/2016 14:26:45 80.75, -74.41 75.61 2.07 17
6 04/09/2016 19:10:48 80.77,-145.81 74.84 04/09/2016 19:09:52 80.78,-145.75 74.86 1.17 56
7 04/09/2016 20:00:14 -80.76, 22.05 105.22 04/09/2016 20:00:55 -80.76, 21.95 105.22 1.73 41
8 04/12/2016 00:44:34 -80.78, -49.27 106.00 04/12/2016 00:44:02 -80.78, -49.24 105.98 0.69 32
9 04/12/2016 01:34:00 80.76, 118.51 73.97 04/12/2016 01:34:58 80.76, 118.50 73.94 0.50 58
10 04/14/2016 06:18:20 80.79, 47.12 73.22 04/14/2016 06:18:05 80.78, 47.11 73.22 0.62 15




NCC Satellite Simultaneous Nadir Overpasses (SNOs) Prediction Service
